Cosmos 1420 Rocket - Orbit

View from above orbital plane
View from above orbital plane
View from above satellite
View from above satellite

Ground track
Ground track

The orbit data is extracted from the following two-line orbital elements,

1 13649U 82109B   13138.44918148  .00000188  00000-0  72834-4 0   376
2 13649 074.0010 238.5482 0018634 021.1700 049.8096 14.36485517597519
Epoch (UTC): 18 May 2013 10:46:49
Eccentricity: 0.0018634
inclination: 74.0010°
perigee height: 757 km
apogee height: 783 km
right ascension of ascending node: 238.5482°
argument of perigee: 21.1700°
revolutions per day: 14.36485517
mean anomaly at epoch: 49.8096°
orbit number at epoch: 59751

The dashed part of the orbit path shows where the satellite is in the earth's shadow,  

Developed and maintained by Chris Peat, Heavens-Above GmbH. Please read the updated FAQ before sending e-mail. Imprint. DLR